Location: Unspecified
(0.0000°N, 0.0000°E)
Time: 18:11:21
(UTC+00:00)

Transit 2A - Pass Details

Date: 30 May 2019
Orbit: 596 x 962 km, 66.7° (Epoch: 18 August)

Event Time Altitude Azimuth Distance (km) Brightness Sun altitude
Rises 17:17:38 0° 305° (NW) 3,118 11.0 9.3°
Reaches altitude 10° 17:21:28 10° 276° (W) 2,115 10.2 8.4°
Maximum altitude 17:23:24 12° 252° (WSW) 1,922 9.0 7.9°
Drops below altitude 10° 17:25:17 10° 227° (SW) 2,043 8.6 7.5°
Sets 17:28:51 0° 197° (SSW) 2,896 8.9 6.7°
